Weather History for Millinocket, ME

Change the Weather History Date:

Friday, March 21, 2014

  Actual Average Record
Temperature  
Mean Temperature 31 °F 30 °F  
Max Temperature 35 °F 39 °F 79 °F (2012)
Min Temperature 26 °F 20 °F -12 °F (1916)
Degree Days  
Heating Degree Days 34 35  
Month to date heating degree days 968 812  
Since 1 July heating degree days 7006 6864  
Cooling Degree Days 0 0  
Month to date cooling degree days 0 0  
Year to date cooling degree days 0 0  
Moisture  
Dew Point 23 °F    
Average Humidity 70    
Maximum Humidity 82    
Minimum Humidity 58    
Precipitation  
Precipitation T in 0.12 in 1.03 in (1975)
Month to date precipitation 1.49 1.84  
Year to date precipitation 6.68 6.95  
Sea Level Pressure  
Sea Level Pressure 29.65 in    
Wind  
Wind Speed 10 mph (WNW)    
Max Wind Speed 21 mph    
Max Gust Speed 31 mph    
Visibility 10 miles    
Events Snow    
T = Trace of Precipitation, MM = Missing Value Source: NWS Daily Summary

Daily Weather History Graph

Daily Weather History Graph

Search for Another Location

Airport:

Trip Planner

Search our weather history database for the weather conditions in past years. The results will help you decide how hot, cold, wet, or windy it might be!

Date:

Astronomy

Mar. 21, 2014 Rise Set
Actual Time 6:35 AM EDT 6:48 PM EDT
Civil Twilight 6:06 AM EDT 7:18 PM EDT
Nautical Twilight 5:31 AM EDT 7:53 PM EDT
Astronomical Twilight 4:55 AM EDT 8:29 PM EDT
Moon No Moon Rise 9:11 AM EDT (3/21)
Length of Visible Light 13h 11m
Length of Day
12h 12m
Waning Gibbous, 75% of the Moon is Illuminated
Mar 21
Waning Gibbous
Mar 23
Last Quarter
Mar 30
New
Apr 7
First Quarter
Apr 15
Full

Hourly Weather History & Observations

Time (EDT) Temp. Windchill Dew Point Humidity Pressure Visibility Wind Dir Wind Speed Gust Speed Precip Events Conditions
12:53 AM 34.0 °F 29.8 °F 28.9 °F 82% 29.54 in 10.0 mi Variable 4.6 mph - N/A   Overcast
1:53 AM 34.0 °F 28.8 °F 28.0 °F 79% 29.55 in 10.0 mi Variable 5.8 mph - N/A   Overcast
2:53 AM 33.1 °F 28.7 °F 27.0 °F 78% 29.55 in 10.0 mi Variable 4.6 mph - N/A   Overcast
3:20 AM 33.1 °F 27.7 °F 27.0 °F 78% 29.52 in 10.0 mi WSW 5.8 mph - N/A   Overcast
3:53 AM 33.1 °F - 28.0 °F 82% 29.55 in 10.0 mi Calm Calm - N/A   Overcast
4:04 AM 32.0 °F 28.7 °F 28.0 °F 85% 29.52 in 10.0 mi Variable 3.5 mph - N/A   Overcast
4:53 AM 33.1 °F 28.7 °F 27.0 °F 78% 29.54 in 10.0 mi Variable 4.6 mph - N/A   Overcast
5:53 AM 32.0 °F 27.5 °F 27.0 °F 82% 29.55 in 9.0 mi Variable 4.6 mph - 0.00 in Snow Light Snow
6:53 AM 33.1 °F 27.7 °F 27.0 °F 78% 29.56 in 10.0 mi Variable 5.8 mph - 0.00 in   Overcast
7:53 AM 33.1 °F 27.7 °F 27.0 °F 78% 29.56 in 10.0 mi Variable 5.8 mph - N/A   Overcast
8:09 AM 33.1 °F 28.7 °F 27.0 °F 78% 29.54 in 10.0 mi Variable 4.6 mph - N/A   Overcast
8:53 AM 34.0 °F 28.0 °F 25.0 °F 70% 29.58 in 10.0 mi West 6.9 mph 17.3 mph N/A   Overcast
9:53 AM 34.0 °F 26.0 °F 25.0 °F 70% 29.60 in 10.0 mi West 10.4 mph 18.4 mph N/A   Overcast
10:53 AM 35.1 °F 25.5 °F 24.1 °F 64% 29.62 in 10.0 mi West 15.0 mph 23.0 mph N/A   Overcast
11:53 AM 34.0 °F 24.2 °F 23.0 °F 64% 29.65 in 10.0 mi West 15.0 mph 25.3 mph N/A   Overcast
12:53 PM 34.0 °F 24.6 °F 21.9 °F 61% 29.66 in 10.0 mi West 13.8 mph 31.1 mph N/A   Overcast
1:29 PM 34.0 °F 24.6 °F 21.9 °F 61% 29.63 in 9.0 mi WNW 13.8 mph 25.3 mph N/A   Overcast
1:38 PM 34.0 °F 24.6 °F 23.0 °F 64% 29.63 in 9.0 mi West 13.8 mph 28.8 mph N/A   Overcast
1:53 PM 33.1 °F 23.9 °F 21.9 °F 64% 29.67 in 9.0 mi West 12.7 mph 28.8 mph N/A   Overcast
2:53 PM 33.1 °F 24.4 °F 21.9 °F 64% 29.69 in 10.0 mi WNW 11.5 mph 27.6 mph N/A   Overcast
3:09 PM 33.1 °F 23.9 °F 21.0 °F 61% 29.66 in 10.0 mi West 12.7 mph 24.2 mph N/A   Overcast
3:44 PM 32.0 °F 21.2 °F 21.9 °F 66% 29.68 in 10.0 mi WNW 16.1 mph 24.2 mph N/A   Overcast
3:53 PM 32.0 °F 21.6 °F 19.9 °F 61% 29.71 in 10.0 mi WNW 15.0 mph 25.3 mph N/A   Overcast
4:12 PM 32.0 °F 22.5 °F 19.9 °F 61% 29.69 in 10.0 mi West 12.7 mph 28.8 mph N/A   Overcast
4:53 PM 32.0 °F 21.6 °F 19.9 °F 61% 29.73 in 10.0 mi West 15.0 mph 27.6 mph N/A   Overcast
5:53 PM 30.9 °F 20.2 °F 19.9 °F 64% 29.75 in 10.0 mi West 15.0 mph 24.2 mph N/A   Overcast
6:53 PM 30.0 °F 21.1 °F 19.9 °F 66% 29.78 in 10.0 mi WNW 10.4 mph 19.6 mph N/A   Scattered Clouds
7:53 PM 30.0 °F 19.1 °F 19.0 °F 64% 29.81 in 10.0 mi WNW 15.0 mph 24.2 mph N/A   Clear
8:53 PM 28.9 °F 18.6 °F 19.0 °F 67% 29.83 in 10.0 mi WNW 12.7 mph 18.4 mph N/A   Clear
9:53 PM 28.9 °F 22.8 °F 18.0 °F 64% 29.85 in 10.0 mi West 5.8 mph 17.3 mph N/A   Clear
10:53 PM 30.0 °F 20.0 °F 18.0 °F 61% 29.87 in 10.0 mi WNW 12.7 mph 20.7 mph N/A   Overcast
11:53 PM 28.9 °F 21.9 °F 17.1 °F 61% 29.89 in 10.0 mi WNW 6.9 mph - N/A   Clear